Regional Weather Roundup
Issued by NWS

Home | Current Version | Previous Version | Text Only | Print | Product List | Glossary Off
Versions: 1 2 3 4 5 6 7 8 9 10 11 12 13 14 15 16 17 18 19 20 21 22 23 24 25 26 27 28 29 30 31 32 33 34 35 36 37 38 39 40 41 42 43 44 45 46 47 48 49 50

000
ASUS43 KOAX 262302
RWRNE

WEATHER ROUNDUP FOR NEBRASKA
NATIONAL WEATHER SERVICE OMAHA NE
500 PM CST MON JAN 26 2015

NOTES: SATELLITE DATA IS BEING USED TO AUGMENT CLOUD COVER ABOVE
       12000 FEET.
       "FAIR" INDICATES FEW OR NO CLOUDS BELOW 12,000 FEET WITH NO
       SIGNIFICANT WEATHER AND/OR OBSTRUCTIONS TO VISIBILITY.

  * THESE STATIONS DO NOT REPORT WEATHER SUCH AS RAIN...SNOW OR FOG.

NEZ001>004-019>022-054>056-270000-
NEBRASKA PANHANDLE

CITY           SKY/WX    TMP DP  RH WIND       PRES   REMARKS
SCOTTSBLUFF    CLEAR     62  34  35 W12       30.10F
ALLIANCE       CLEAR     60  38  43 W8        30.08F
CHADRON        CLEAR     64  35  34 W9        30.05F
SIDNEY         CLEAR     64  30  27 NW10      30.14S
$$

NEZ057>060-069>072-079>082-270000-
SOUTHWEST NEBRASKA

CITY           SKY/WX    TMP DP  RH WIND       PRES   REMARKS
NORTH PLATTE   CLEAR     63  30  28 NW13      30.05S
IMPERIAL       CLEAR     65  30  27 NW8       30.10S
LEXINGTON      CLEAR     64  32  30 N9        30.03S
MCCOOK         CLEAR     68  30  24 NW12      30.06S
$$

NEZ005>010-023>029-035>040-094-270000-
NORTH CENTRAL NEBRASKA

CITY           SKY/WX    TMP DP  RH WIND       PRES   REMARKS
VALENTINE      CLEAR     60  32  34 NW12      30.02S
AINSWORTH      CLEAR     55  35  47 N5        30.02S
BROKEN BOW     CLEAR     62  33  33 NW13G23   30.02S
ORD            CLEAR     58  33  39 N6        30.00R
$$

NEZ041-046>049-061>064-073>077-083>087-270000-
SOUTH CENTRAL NEBRASKA

CITY           SKY/WX    TMP DP  RH WIND       PRES   REMARKS
GRAND ISLAND   CLEAR     60  35  39 NW9       30.02R
AURORA         CLEAR     60  33  35 NW7       30.00S
HASTINGS       CLEAR     62  31  31 N10       30.01R
KEARNEY *      CLEAR     63  32  31 N9        30.02S
$$

NEZ011>018-030>034-042>045-270000-
NORTHEAST NEBRASKA

CITY           SKY/WX    TMP DP  RH WIND       PRES   REMARKS
NORFOLK        CLEAR     54  33  45 NW8       29.98R
ALBION         CLEAR     57  29  33 N7        30.00R
BLAIR          CLEAR     55  34  45 NW13      29.96R
COLUMBUS *     CLEAR     55  30  38 NW10      30.00S
FREMONT        CLEAR     55  34  44 NW9       29.98R
TEKAMAH        CLEAR     54  36  50 NW13      29.97R
$$

NEZ050>053-065>068-078-088>093-270000-
SOUTHEAST NEBRASKA

CITY           SKY/WX    TMP DP  RH WIND       PRES   REMARKS
LINCOLN        CLEAR     59  32  36 NW9       29.99R
OMAHA EPPLEY   PTCLDY    54  35  48 NW14      29.96R
FALLS CITY     CLEAR     58  31  35 NW10      29.95R
NEBRASKA CITY  CLEAR     55  26  33 N10       29.97R
$$

NEZ044-045-051>053-067-270000-
OMAHA AREA

CITY           SKY/WX    TMP DP  RH WIND       PRES   REMARKS
OMAHA EPPLEY   PTCLDY    54  35  48 NW14      29.96R
BLAIR          CLEAR     55  34  45 NW13      29.96R
FREMONT        CLEAR     55  34  44 NW9       29.98R
OFFUTT AFB     CLEAR     56  34  43 NW12      29.96R
WAHOO          FAIR      56  29  35 NW9       29.97S
$$


USA.gov is the U.S. government's official web portal to all federal, state and local government web resources and services.